Regional Weather Roundup
Issued by NWS

Home | Current Version | Previous Version | Text Only | Print | Product List | Glossary On
Versions: 1 2 3 4 5 6 7 8 9 10 11 12 13 14 15 16 17 18 19 20 21 22 23 24 25 26 27 28 29 30 31 32 33 34 35 36 37 38 39 40 41 42 43 44 45 46 47 48 49 50
000
ASUS44 KJAN 240910
RWRMS

MISSISSIPPI HOURLY WEATHER ROUNDUP
NATIONAL WEATHER SERVICE JACKSON MS
400 AM CDT THU APR 24 2014

NOTE: "FAIR: INDICATES FEW OR NO CLOUDS BELOW 12,000 FEET WITH NO
SIGNIFICANT WEATHER AND/OR OBSTRUCTIONS TO VISIBILITY.

MSZ001>002-007>008-010>013-018>021-025>028-034>036-241000-
NORTHWEST MISSISSIPPI

CITY           SKY/WX    TMP DP  RH WIND       PRES   REMARKS
CLARKSDALE       N/A     54  46  76 E5        29.90S
CLEVELAND      FAIR      60  47  63 SE3       29.89R
GREENWOOD      CLEAR     58  43  57 E6        29.89F
GREENVILLE     CLEAR     59  48  67 SE8       29.88R
GRENADA        FAIR      46  45  93 CALM      29.91F
OLIVE BRANCH   CLEAR     52  43  71 E7        29.91F
OXFORD         FAIR      55  39  54 SE3       29.93F
TUNICA         SUNNY     52  45  76 E3        29.91S
$$

MSZ003>006-009-014>017-022>024-029>033-037>039-241000-
NORTHEAST MISSISSIPPI

CITY           SKY/WX    TMP DP  RH WIND       PRES   REMARKS
BELMONT        FAIR      44  42  91 CALM      29.95S
COLUMBUS AFB   CLEAR     47  46  99 CALM      29.94S
CORINTH        FAIR      45  43  93 CALM      29.95S
GOLDN TRIANGLE CLEAR     54  41  62 E7        29.96S
STARKVILLE     FAIR      46  45  93 CALM      29.94R
TUPELO         CLEAR     49  45  86 CALM      29.94R
$$

MSZ040-058-241000-
CENTRAL MISSISSIPPI

CITY           SKY/WX    TMP DP  RH WIND       PRES   REMARKS
JACKSON INTL   CLEAR     60  50  69 SE7       29.89F
JACKSON HAWKNS CLEAR     59  50  72 CALM      29.90S
MERIDIAN KEY   MOCLDY    55  51  86 CALM      29.93R
MERIDIAN NAS   CLOUDY    53  50  89 CALM      29.94R
RAYMOND        FAIR      52  46  82 E3        29.89S
VICKSBURG      PTCLDY    61  53  75 SW3       29.89R
$$

MSZ059>079-241000-
SOUTH MISSISSIPPI

CITY           SKY/WX    TMP DP  RH WIND       PRES   REMARKS
BROOKHAVEN     FAIR      59  57  94 CALM      29.92F
HATTIESBURG    PTCLDY    60  58  92 CALM      29.92F
MCCOMB         CLEAR     63  59  87 CALM      29.90F
NATCHEZ        PTCLDY    55  50  82 SE5       29.88F
PINE BELT      MOCLDY    57  54  88 CALM      29.93S
$$

MSZ080>082-241000-
COASTAL MISSISSIPPI

CITY           SKY/WX    TMP DP  RH WIND       PRES   REMARKS
BILOXI         CLEAR     64  64 100 NW1       29.92S
PASCAGOULA     CLOUDY    60  59  96 CALM      29.92S FOG
GULFPORT       PTCLDY    64  61  90 CALM      29.91S FOG
$$



USA.gov is the U.S. government's official web portal to all federal, state and local government web resources and services.